MIDAS 4 DEB, 2009

Orbit data source: Space-Track

MIDAS 4 DEB, 2009 is space debris in LEO originally from a launch on Sat, 21 Oct 1961 UTC launched from the Air Force Western Test Range (AFWTR). Debris objects in space refer to the collection of defunct objects orbiting the Earth. Examples of debris include non-operational satellites, rocket bodies, and fragments generated from explosions, collisions, or faulty payload assembly.

Loading next visibility...
Identifier
2009, 1961-028E
Orbit
LEO
Country
Flag of USUS
Related business
Manufacturer
Unknown
Mission
Spacecraft
Bus & Motor
Unknown
Mass
~10 kg wet, ~10 kg dry
Launch date (UTC)
1961-10-21 (65 years ago)
Launch vehicle
Unknown
Launch site
Air Force Western Test Range (AFWTR)
Object type
Payload
Rocket body
Debris
Shape & HBR
Unknown shape, 1.1 m
Radar Cross Section
Medium (>0.1 m² and <1 m²)

Expand to show TLE details & history
Last TLE update: 3 days ago

TLE from 3 days ago
0 MIDAS 4 DEB
1 02009U 61028E   26170.58570479 -.00000001  00000-0  10733-2 0  9997
2 02009  95.8406 230.5067 0121652 254.8807 103.8560  8.68991373390211
Epoch: 2026-06-19T14:03Z
TLE epoch observation values (Epoch: 2026-06-19T14:03:24.893Z)
Latitude
-0.0001°
Longitude
111.84043°
Altitude
3,648.193 km
Speed
6.296 km/s
True Right ascension
15h 22m 01s
True Declination
0° 00' 00"
Sunlit
Object was in daylight at epoch
Visualization orbit readout
Latitude
Unknown
Longitude
Unknown
Altitude
Unknown
Speed
Unknown
Apparent Right ascension
Unknown
Apparent Declination
Unknown
Sunlit
N/A
Visualization observer readout
Local Sidereal Time
23:19:29
Azimuth
Unknown
Elevation
Unknown
Doppler factor
Unknown
Orbital elements
Apogee altitude
3,734.95 km
Perigee altitude
3,491.852 km
Semi-major axis
9,991.538 km
Eccentricity
0.01217
Inclination
95.8406°
RAAN
230.5067°
Arg. of periapsis
254.8807°
True anomaly
105.20443°
Mean anomaly
103.856°
Eccentric anomaly
104.53072°
Mean motion
2.17317 °/min
Orbital period
165.66 mins
BSTAR
0.0010733
Loading maneuver chart data...
Computing Atmospheric mass density...
Loading historical data...
Loading historical data...
Loading historical data...
Loading historical data...
Loading historical data...
Loading historical data...
Loading historical data...

Documentation

Showing up to 5 results
|